Location: Newark
(7.1028°S, 35.3258°W)
Time: 17:04:45
(UTC+00:00)

X-37B - Pass Details

Date: 05 March 2021
Orbit: 380 x 394 km, 45.0° (Epoch: 07 April)

Event Time Altitude Azimuth Distance (km) Brightness Sun altitude
Rises 21:35:11 0° 250° (WSW) 2,259 6.2 -14.7°
Reaches altitude 10° 21:37:54 10° 276° (W) 1,405 4.7 -15.4°
Maximum altitude 21:39:45 15° 312° (NW) 1,164 3.5 -15.8°
Drops below altitude 10° 21:41:36 10° 348° (NNW) 1,404 3.4 -16.3°
Enters shadow 21:43:06 - 5° (N) 1,834 3.9 -16.6°
